Regional Weather Roundup
Issued by NWS

Home | Current Version | Previous Version | Graphics & Text | Print | Product List | Glossary On
Versions: 1 2 3 4 5 6 7 8 9 10 11 12 13 14 15 16 17 18 19 20 21 22 23 24 25 26 27 28 29 30 31 32 33 34 35 36 37 38 39 40 41 42 43 44 45 46 47 48 49 50
534
ASUS43 KIND 140909
RWRIN

WEATHER ROUNDUP FOR INDIANA
NATIONAL WEATHER SERVICE INDIANAPOLIS IN
400 AM EST SUN FEB 14 2016

NOTE: "FAIR" INDICATES FEW OR NO CLOUDS BELOW 12,000 FEET WITH NO
SIGNIFICANT WEATHER AND/OR OBSTRUCTIONS TO VISIBILITY.

* - STATION DOES NOT REPORT WEATHER SUCH AS PRECIPITATION OR FOG.

+ - STATION NOT QUALITY CONTROLLED BY THE NATIONAL WEATHER SERVICE.
    USE DATA WITH CAUTION...ESPECIALLY DEWPOINT AND RELATIVE
    HUMIDITY OBSERVATIONS.

INZ001>003-010>013-019-020-141000-
NORTHWEST INDIANA

CITY           SKY/WX    TMP DP  RH WIND       PRES   REMARKS
GARY /AIRPORT/ CLOUDY    12   1  60 S5        30.45S WCI   4
KNOX *+        CLOUDY     5   0  78 SE5       30.45S WCI  -4
LA PORTE +     CLOUDY     2  -2  83 CALM      30.44F
MICHIGAN CITY+ CLOUDY     9   1  72 SE3       30.44F
MONTICELLO +   CLOUDY    11  -1  57 SE3       30.45S
RENSSELAER +   CLOUDY    14   0  52 SE6       30.44F WCI   5
VALPARAISO     CLOUDY     7   1  76 E5        30.44S WCI  -2

$$

LMZ046-743>745-141000-
SOUTHERN LAKE MICHIGAN

STATION/POSITION TIME  TEMP    WIND        PRES    WAVE
                       AIR SEA DIR/SP/G            HT
                 (UTC) (F)     (DEG/KT/KT) (MB)    (FT)
BURNS HARBOR     0800   12     140/  6/ 19 1031.5F
MICHIGAN CITY    0800    9     120/  8/ 10   N/A

$$

INZ004-005-014>016-021>024-141000-
NORTH CENTRAL INDIANA

CITY           SKY/WX    TMP DP  RH WIND       PRES   REMARKS
GOSHEN         CLOUDY     8   1  73 E5        30.45S WCI   0
LOGANSPORT +   CLOUDY    10   1  67 E6        30.45F WCI   1
PERU/GRISSOM   CLOUDY    10   2  72 E6        30.41F WCI   0
ROCHESTER +    CLOUDY     3  -4  72 CALM      30.44F
SOUTH BEND     MOCLDY     6   1  80 SE3       30.44F
WARSAW +       CLOUDY     1  -2  85 CALM      30.44F

$$

INZ006>009-017-018-025>027-141000-
NORTHEAST INDIANA

CITY           SKY/WX    TMP DP  RH WIND       PRES   REMARKS
ANGOLA *+      CLOUDY     9   3  78 CALM      30.43F
AUBURN +       CLOUDY    12   7  79 CALM      30.46F
FORT WAYNE     CLOUDY     6   0  76 CALM      30.46F
HUNTINGTON +   CLOUDY     2  -4  77 NE3       30.44F

$$

INZ028-029-035-036-043>045-051>053-141000-
WEST CENTRAL INDIANA

CITY           SKY/WX    TMP DP  RH WIND       PRES   REMARKS
CRAWFORDSVL +  CLOUDY    13   1  57 E10       30.42F WCI   0
GREENCASTLE +  CLOUDY    16   0  48 SE10      30.42F WCI   3
LAFAYETTE      CLOUDY    13   2  61 E8        30.44F WCI   2
TERRE HAUTE    CLOUDY    17   3  54 SE9       30.43F WCI   6

$$

INZ030>032-037>040-046>048-054>057-064-065-141000-
CENTRAL INDIANA

CITY           SKY/WX    TMP DP  RH WIND       PRES   REMARKS
FISHERS *+     CLOUDY    10   3  72 E7        30.44F WCI   0
FRANKFORT +    MOCLDY    13  -3  48 E12       30.44F WCI  -1
GREENWOOD *+   CLOUDY    14   5  67 E10       30.44  WCI   1
INDIANAPOLIS   CLOUDY    14   1  56 E10       30.42F WCI   1
-EAGLE CREEK   CLOUDY    13   1  59 E9        30.42F WCI   1
KOKOMO *+      CLOUDY    10   1  67 E7        30.43F WCI   0
MARION +       CLOUDY     8  -4  58 E5        30.44F WCI  -1
MT COMFORT *+  CLOUDY    12   3  67 E8        30.44F WCI   1
SHELBYVILLE    PTCLDY    14   2  58 E10       30.44F WCI   1
ZIONSVILLE +   CLOUDY    12   2  65 E6        30.43F WCI   2

$$

INZ033-034-041-042-049-050-058-059-141000-
EAST CENTRAL INDIANA

CITY           SKY/WX    TMP DP  RH WIND       PRES   REMARKS
MUNCIE         CLOUDY    10   1  67 E7        30.43F WCI  -1

$$

INZ060-061-067>069-081>083-085>088-141000-
SOUTHWEST INDIANA

CITY           SKY/WX    TMP DP  RH WIND       PRES   REMARKS
EVANSVILLE     CLOUDY    24   4  42 E7        30.41F WCI  16
HUNTINGBURG *+ CLOUDY    19   3  49 E9        30.41F WCI   9
WASHINGTON +   CLOUDY    19   4  51 E12       30.42F WCI   7

$$

INZ062-063-066-070>080-084-089>092-141000-
SOUTH CENTRAL AND SOUTHEAST INDIANA

CITY           SKY/WX    TMP DP  RH WIND       PRES   REMARKS
BEDFORD +      CLOUDY    18   5  57 E7        30.43F WCI   8
BLOOMINGTON    CLOUDY    16   2  54 E8        30.41F WCI   5
MADISON *+     CLOUDY    18   3  53 E5        30.46S WCI  11
NORTH VERNON + CLOUDY    16   3  57 CALM      30.45F
SEYMOUR +      MOCLDY    19   5  53 E3        30.47R

$$





USA.gov is the U.S. government's official web portal to all federal, state and local government web resources and services.